Regional Weather Roundup
Issued by NWS

Home | Current Version | Previous Version | Graphics & Text | Print | Product List | Glossary On
Versions: 1 2 3 4 5 6 7 8 9 10 11 12 13 14 15 16 17 18 19 20 21 22 23 24 25 26 27 28
000
ASUS45 KCYS 151810
RWRWY

WYOMING REGIONAL WEATHER ROUNDUP
NATIONAL WEATHER SERVICE CHEYENNE WY
1200 PM MDT TUE APR 15 2014

NOTE:  "FAIR" INDICATES FEW OR NO CLOUDS BELOW 12,000 FEET
WITH NO SIGNIFICANT WEATHER AND/OR OBSTRUCTIONS TO VISIBILITY.

WYZ001-151900-
YELLOWSTONE NATIONAL PARK

CITY           SKY/WX    TMP DP  RH WIND       PRES   REMARKS
LK YELLOWSTONE   N/A     38  11  32 VRB6      29.87F WCI  33
6HR MIN TEMP:  17; 6HR MAX TEMP:  39;

W YELLOWSTONE  NOT AVBL

$$
WYZ002>013-054>058-071-098>099-151900-
NORTHERN WYOMING

CITY           SKY/WX    TMP DP  RH WIND       PRES   REMARKS
JACKSON        MOSUNNY   46  12  25 S18         N/A
CODY           MOSUNNY   55  19  24 S9        29.72F
GREYBULL       PTSUNNY   47  28  47 SE7       29.75F
6HR MIN TEMP:  29; 6HR MAX TEMP:  47;

WORLAND        PTSUNNY   48  28  46 S7        29.76F
SHERIDAN       MOSUNNY   59  22  24 S7        29.67F
6HR MIN TEMP:  28; 6HR MAX TEMP:  60;

BUFFALO        PTSUNNY   56  13  18 SE13      29.72F
6HR MIN TEMP:  34; 6HR MAX TEMP:  56;

GILLETTE       SUNNY     59  19  21 W14G20    29.70F
6HR MIN TEMP:  37; 6HR MAX TEMP:  59;

HULETT         FAIR      54  23  30 W9G16     29.71
NEWCASTLE      FAIR      46  23  39 S8        29.77

$$
WYZ014>020-022>026-101>103-151900-
CENTRAL WYOMING

CITY           SKY/WX    TMP DP  RH WIND       PRES   REMARKS
BIG PINEY      SUNNY     48  14  25 VRB5      29.91F
6HR MIN TEMP:  20; 6HR MAX TEMP:  49;

PINEDALE       PTCLDY    43  16  33 CALM      29.93F
DUBOIS         MOCLDY    46   7  19 W24G35    29.81F
LANDER         MOSUNNY   54  23  30 SE8       29.79F
6HR MIN TEMP:  32; 6HR MAX TEMP:  54;

RIVERTON       MOSUNNY   53  10  18 S10       29.81F
6HR MIN TEMP:  34; 6HR MAX TEMP:  54;

CASPER         PTSUNNY   49  22  34 SW23G30   29.83F
6HR MIN TEMP:  36; 6HR MAX TEMP:  49;

DOUGLAS        CLOUDY    48  25  40 W9        29.80F
6HR MIN TEMP:  21; 6HR MAX TEMP:  49;


$$
WYZ021-027>030-104>119-151900-
SOUTHERN WYOMING

CITY           SKY/WX    TMP DP  RH WIND       PRES   REMARKS
EVANSTON       SUNNY     52  14  22 SW22G32   29.97F
6HR MIN TEMP:  31; 6HR MAX TEMP:  52;

KEMMERER       CLEAR     50  12  22 W20G35    29.95F
FORT BRIDGER   FAIR      55   8  15 W28G37    29.98F
ROCK SPRINGS   SUNNY     54   7  15 W25G35    29.93F
6HR MIN TEMP:  33; 6HR MAX TEMP:  54;

DIXON          FAIR      45  20  36 S13G24    30.05F
RAWLINS        CLOUDY    46  15  28 SW21      29.95F
6HR MIN TEMP:  31; 6HR MAX TEMP:  46;

SARATOGA       CLOUDY    43  18  36 SW9       29.99F
LARAMIE        CLOUDY    43  20  39 W21       29.90F
6HR MIN TEMP:  25; 6HR MAX TEMP:  43;

CHEYENNE       CLOUDY    47  19  33 W23G29    29.88F
6HR MIN TEMP:  35; 6HR MAX TEMP:  47;

TORRINGTON     CLOUDY    51  27  39 W16G23    29.81F
6HR MIN TEMP:  21; 6HR MAX TEMP:  51;

PINE BLUFFS    FAIR      52  23  32 SW16      29.88F

$$



USA.gov is the U.S. government's official web portal to all federal, state and local government web resources and services.